Regional Weather Roundup
Issued by NWS Midland/Odessa, TX

Skip options and go directly to product.
Home | Oldest Version | Previous Version | Current Version | All | Text Only | Save Text | Print | Product List | Glossary On

Skip product version selection by date and time.   
094
ASUS44 KMAF 262010
RWRMAF
MIDLAND AREA WEATHER ROUNDUP
NATIONAL WEATHER SERVICE MIDLAND TX
300 PM CDT MON SEP 26 2016

...IN SOUTHWEST TEXAS AND SOUTHEAST NEW MEXICO...

CITY           SKY/WX    TMP DP  RH WIND       PRES   REMARKS
ALPINE         CLOUDY    49  49  99 N13G20    30.40F
ANDREWS        CLOUDY    67  42  39 NE13      30.32F
ARTESIA        MOSUNNY   66  45  45 CALM      30.34F
BIG SPRING     CLOUDY    70  40  34 N16G24    30.28
CARLSBAD       LGT RAIN  62  50  64 SE6       30.34F
DRYDEN           N/A     58  57  97 N15G23    30.22F
FORT STOCKTON  LGT RAIN  57  54  89 NW8       30.30F
GUAD PASS      LGT RAIN  50  45  83 NE40G47   30.33F
HOBBS          PTSUNNY   64  41  42 NE9       30.35F
MARFA          LGT RAIN N/A N/A N/A NE23G32   30.32F
MIDLAND AIRPK  CLOUDY    70  40  34 NE13      30.29F
MIDLAND INTL   CLOUDY    69  40  34 NE15G22   30.28F
ODESSA         CLOUDY    68  39  34 NE17      30.31F
PECOS          RAIN      58  56  92 W9        30.32F
PRESIDIO       NOT AVBL
SEMINOLE       CLOUDY    66  40  38 E10       30.34F
SNYDER           N/A     70  39  32 CALM      30.26F
WINK           CLOUDY    65  45  48 NE7       30.30F
$$
...OTHER STATIONS IN TEXAS...

CITY           SKY/WX    TMP DP  RH WIND       PRES   REMARKS
ABILENE        CLOUDY    70  53  54 NE14G21   30.22F
AMARILLO       SUNNY     73  35  25 NE8       30.33F
AUSTIN         CLOUDY    72  68  87 N14       30.07F
BROWNSVILLE    CLOUDY    86  72  62 E10       29.93F
CORPUS CHRISTI CLOUDY    83  71  67 NE12      29.97F
DALLAS FTW     LGT RAIN  64  59  83 NE14      30.16F
DEL RIO        CLOUDY    74  64  71 N8        30.09F
EL PASO        LGT RAIN  64  42  44 SE14      30.30F
HOUSTON INT    CLOUDY    84  73  69 N8        29.99F
LUBBOCK        CLOUDY    71  37  28 E14G23    30.32F
SAN ANGELO     LGT RAIN  67  56  67 NE16      30.20F
SAN ANTONIO    CLOUDY    76  68  76 N13       30.07F
WACO           CLOUDY    69  61  75 N14G21    30.12F
WICHITA FALLS  NOT AVBL
$$
...OTHER LOCATIONS IN NEW MEXICO...

CITY           SKY/WX    TMP DP  RH WIND       PRES   REMARKS
ALAMAGORDO     SUNNY     73  32  21 W5        30.28F
ALBUQUERQUE    PTSUNNY   68  31  25 SE18      30.38F
CANNON AFB     SUNNY     70  38  31 E12G17    30.35F
CLOVIS         SUNNY     72  41  33 E13       30.36F
HOLLOMAN AFB   SUNNY     75  34  22 W14       30.25F
ROSWELL        PTSUNNY   73  38  27 E12       30.34F
RUIDOSO        CLOUDY    59  32  36 SE18G28   30.47F
SANTA FE       CLOUDY    66  33  29 CALM      30.41F
TRUTH OR CONSE CLOUDY    72  32  23 E8G17     30.31F
TUCUMCARI      SUNNY     75  35  23 E10       30.33F
$$

USA.gov is the U.S. government's official web portal to all federal, state and local government web resources and services.